sat.trackr.live / text

‹ back to catalog

KUIPER-00115

NORAD 65152 · 2025-171W

PAYLOAD ACTIVE UNKNOWN

§ Identity

Operator
Country
US
Launch date
2025-08-11
Launch site
AFETR
Launch vehicle
Mass (kg)
RCS (m²)

External: N2YO · Heavens-Above · Gunter

§ Orbital elements

Epoch: 2026-05-24T20:10:00.739776Z

Period
97.30 min
Inclination
51.9012°
Eccentricity
0.0000109
Mean motion
14.79950323 rev/d
Perigee alt
629.4 km
Apogee alt
629.6 km
Semi-major
7,007.6 km
B*
6.1639e-4
RAAN
191.3581°
Arg perigee
127.8132°
Mean anomaly
232.2841°
Rev number
4,402

§ Raw data

KUIPER-001151 65152U 25171W   26144.84028634  .00004483  00000+0  61639-3 0  99932 65152  51.9012 191.3581 0000109 127.8132 232.2841 14.79950323 44026

JSON: /api/v1/satellites/65152 · /tle

For live sub-satellite position, see the globe view (requires WebGL).

§ Visibility from observer

Set your observer location to see the next 7 days of passes ≥ 10°. The values pass through the URL so the page stays shareable.

No JS? Fill the form by hand. The geolocation button needs JavaScript.